[[{"header":{"parameterUnit":"m.s-1","parameterCategory":1,"la1":30.2991,"la2":30.254,"lo1":-89.0895,"lo2":-89.0444,"dy":0.0017,"dx":0.0017,"nx":28,"ny":28,"refTime":"2025-08-09T03:00:00:Z","depth":0,"parameterNumber":2,"parameterNumberName":"U-component_of_WINDS"},"data":[0,0,0,0,0,0,0,0,0,0,0,0,0,0,0,0,0,0,0,0,0,0,0,0,0,0,0,0,0,0,0,0,0,0,0,0,0,0,0,0,0,0,0,0,0,0,0,0,0,0,0,0,0,0,0,0,0,0,-5.3578,-5.3578,0,-5.3565,-5.3565,-5.3565,-5.3377,-5.3372,-5.3368,-5.3363,-5.3352,-5.3356,-5.3361,0,0,0,0,0,0,0,0,0,0,0,0,0,-5.3442,-5.3445,-5.3578,-5.3578,-5.3578,-5.3565,-5.3565,-5.3565,-5.3378,-5.3372,-5.3366,-5.3361,-5.3351,-5.3356,-5.3361,0,0,0,0,0,0,0,0,0,0,0,0,0,-5.3473,-5.3447,-5.3578,-5.3483,-5.3474,-5.3565,-5.3565,-5.3565,-5.3379,-5.3372,-5.3365,-5.3358,-5.3349,-5.3355,-5.3362,-5.3544,0,0,-5.3381,-5.3383,0,0,0,0,0,0,0,0,-5.3471,-5.3478,-5.3497,-5.349,-5.348,-5.3465,-5.3513,-5.3558,-5.3381,-5.3416,-5.3363,-5.3355,-5.3396,-5.3398,-5.3411,-5.3543,-5.3543,-5.3381,-5.3385,-5.3388,-5.339,0,0,0,0,0,0,0,-5.3469,-5.3477,-5.3573,-5.3498,-5.3487,-5.3441,-5.3438,-5.3521,-5.3446,-5.3412,-5.3398,-5.3399,-5.339,-5.3406,-5.341,-5.3542,-5.3381,-5.3387,-5.3391,-5.3393,-5.3821,-5.3829,0,0,0,0,0,0,-5.348,-5.3477,-5.3573,-5.3573,-5.3458,-5.345,-5.3446,-5.3477,-5.3445,-5.3433,-5.3405,-5.339,-5.3399,-5.3403,-5.3409,-5.3618,-5.3388,-5.3394,-5.3397,-5.3814,-5.3823,-5.3831,0,0,0,0,0,0,-5.3478,-5.349,-5.3574,-5.3521,-5.3528,-5.346,-5.3497,-5.3481,-5.3496,-5.344,-5.3426,-5.3435,-5.3393,-5.34,-5.3511,-5.3615,-5.3396,-5.3402,-5.3805,-5.3817,-5.3827,-5.4039,0,0,0,0,0,0,-5.3475,-5.3491,-5.3559,-5.3524,-5.3532,-5.3677,-5.3503,-5.3486,-5.3507,-5.3488,-5.3464,-5.3453,-5.3388,-5.3503,-5.3517,-5.3619,-5.3407,-5.3795,-5.381,-5.3823,-5.4023,-5.4056,-5.4085,0,0,0,0,0,-5.347,-5.362,-5.3563,-5.3576,-5.3615,-5.3683,-5.3687,-5.3609,-5.3517,-5.3584,-5.3548,-5.3454,-5.3602,-5.3516,-5.353,-5.3636,-5.3788,-5.3806,-5.3822,-5.4008,-5.405,-5.4085,0,0,0,0,0,0,-5.367,-5.3613,-5.355,-5.3692,-5.3694,-5.3651,-5.3734,-5.3655,-5.3683,-5.3664,-5.3566,-5.3563,-5.3689,-5.3674,-5.3579,-5.381,-5.3678,-5.3699,-5.3815,-5.3854,-5.3884,-5.3885,-5.3412,0,0,0,0,0,-5.373,-5.3789,-5.3737,-5.3868,-5.3872,-5.3804,-5.383,-5.377,-5.3767,-5.3767,-5.3738,-5.3741,-5.3787,-5.382,-5.3859,-5.402,-5.4011,-5.41,-5.4132,-5.4158,-5.4177,-5.4259,-5.4297,-5.3888,-5.3887,-5.3887,0,0,-5.3856,-5.3832,-5.3876,-5.3907,-5.3901,-5.3965,-5.3805,-5.388,-5.3925,-5.3778,-5.388,-5.3861,-5.3856,-5.3993,-5.4051,-5.3984,-5.4288,-5.418,-5.4201,-5.4205,-5.4281,-5.4319,-5.4354,-5.3899,-5.3897,-5.3895,0,0,-5.4116,-5.4105,-5.4212,-5.4209,-5.4201,-5.4155,-5.4181,-5.415,-5.413,-5.4232,-5.4122,-5.4176,-5.4259,-5.426,-5.4271,-5.4533,-5.4447,-5.4549,-5.4713,-5.4794,-5.4826,-5.4854,-5.4946,-5.498,-5.4568,-5.4569,-5.4569,0,-5.4273,-5.4363,-5.4277,-5.4358,-5.4375,-5.4244,-5.4351,-5.4353,-5.436,-5.4375,-5.4299,-5.4399,-5.4387,-5.4521,-5.4585,-5.4599,-5.4625,-5.455,-5.4829,-5.4856,-5.4881,-5.4967,-5.5002,-5.4581,-5.458,-5.4578,-5.4577,0,-5.4556,-5.4621,-5.4708,-5.4716,-5.4743,-5.4838,-5.4765,-5.4803,-5.4741,-5.4703,-5.4807,-5.4789,-5.4822,-5.485,-5.479,-5.4976,-5.4934,-5.4846,-5.4711,-5.4934,-5.5013,-5.5045,-5.4599,-5.4594,-5.459,-5.4587,0,0,-5.494,-5.4899,-5.4933,-5.4934,-5.4916,-5.4965,-5.5054,-5.5085,-5.5119,-5.5128,-5.5199,-5.5272,-5.519,-5.5203,-5.5143,-5.5215,-5.5421,-5.5117,-5.5115,-5.5173,-5.5623,-5.5688,-5.5728,-5.5365,-5.5371,-5.5376,-5.5623,0,-5.519,-5.5337,-5.5261,-5.5418,-5.5476,-5.5354,-5.543,-5.5428,-5.5396,-5.544,-5.5404,-5.5457,-5.5345,-5.5352,-5.5418,-5.5383,-5.551,-5.5364,-5.543,-5.5433,-5.5432,-5.5769,-5.5838,-5.6072,-5.5653,-5.5659,-5.5662,0,-5.55,-5.5521,-5.5684,-5.5654,-5.5676,-5.5746,-5.5768,-5.5813,-5.5808,-5.5779,-5.5795,-5.5717,-5.5802,-5.567,-5.5785,-5.5688,-5.571,-5.5697,-5.5704,-5.5706,-5.556,-5.5778,-5.6145,-5.6179,-5.5711,-5.5707,-5.5703,0,-5.5761,-5.5831,-5.5936,-5.5942,-5.5911,-5.5963,-5.5953,-5.594,-5.5964,-5.5985,-5.5998,-5.603,-5.6046,-5.6072,-5.6005,-5.5916,-5.6129,-5.5992,-5.6106,-5.6108,-5.6155,-5.6153,-5.6529,-5.6174,-5.6174,-5.6173,-5.6172,0,-5.6046,-5.615,-5.6053,-5.6118,-5.6231,-5.6144,-5.6258,-5.6234,-5.6225,-5.6283,-5.618,-5.6238,-5.6146,-5.6195,-5.6143,-5.6245,-5.6255,-5.6233,-5.6218,-5.6241,-5.6244,-5.6253,-5.6234,-5.6182,-5.618,-5.6178,-5.6177,0,-5.6356,-5.6296,-5.6402,-5.6364,-5.6357,-5.6442,-5.6409,-5.6467,-5.6428,-5.6503,-5.6516,-5.6454,-5.6505,-5.6441,-5.6488,-5.6453,-5.6592,-5.6553,-5.6593,-5.6581,-5.6698,-5.6687,-5.7092,-5.7139,-5.6757,-5.6761,-5.6764,0,-5.6541,-5.6618,-5.6588,-5.6619,-5.6614,-5.6666,-5.6689,-5.6607,-5.6636,-5.6636,-5.6695,-5.6738,-5.6767,-5.6855,-5.6815,-5.6849,-5.6809,-5.6949,-5.6814,-5.6835,-5.6809,-5.6804,-5.6811,-5.6976,-5.6981,-5.6984,-5.6987,0,-5.6875,-5.6841,-5.6878,-5.6905,-5.6935,-5.6953,-5.6963,-5.6994,-5.6909,-5.6946,-5.6997,-5.702,-5.7067,-5.711,-5.7134,-5.7123,-5.7042,-5.7031,-5.7058,-5.7082,-5.71,-5.709,-5.6666,-5.7021,-5.7018,-5.7015,-5.7013,-5.7012,-5.7126,-5.7188,-5.7176,-5.722,-5.7219,-5.7231,-5.7283,-5.725,-5.7291,-5.7321,-5.7271,-5.7335,-5.7328,-5.7351,-5.735,-5.7399,-5.7339,-5.738,-5.739,-5.7401,-5.7417,-5.7095,-5.7403,-5.7402,-5.7401,-5.74,-5.74,0,-5.7452,-5.7438,-5.748,-5.7496,-5.7532,-5.7452,-5.7459,-5.7493,-5.755,-5.7551,-5.7581,-5.764,-5.7682,-5.7645,-5.7679,-5.7725,-5.7689,-5.7737,-5.7731,-5.773,-5.747,-5.7441,-5.7766,-5.7766,-5.7766,-5.7766,-5.7766,-5.7766,-5.7626,-5.7725,-5.769,-5.7789,-5.7774,-5.7835,-5.7845,-5.7856,-5.7855,-5.7924,-5.7958,-5.7934,-5.7919,-5.7951,-5.7986,-5.7974,-5.7991,-5.8052,-5.8027,-5.7785,-5.7749,-5.7714,-5.7687,-5.8057,-5.8058,-5.8282,-5.8284,-5.8286]},{"header":{"parameterUnit":"m.s-1","parameterCategory":1,"la1":30.2991,"la2":30.254,"lo1":-89.0895,"lo2":-89.0444,"dy":0.0017,"dx":0.0017,"nx":28,"ny":28,"refTime":"2025-08-09T03:00:00:Z","depth":0,"parameterNumber":3,"parameterNumberName":"V-component_of_WINDS"},"data":[0,0,0,0,0,0,0,0,0,0,0,0,0,0,0,0,0,0,0,0,0,0,0,0,0,0,0,0,0,0,0,0,0,0,0,0,0,0,0,0,0,0,0,0,0,0,0,0,0,0,0,0,0,0,0,0,0,0,-1.3533,-1.3533,0,-1.3543,-1.3543,-1.3543,-1.3528,-1.3527,-1.3527,-1.3526,-1.3537,-1.3537,-1.3538,0,0,0,0,0,0,0,0,0,0,0,0,0,-1.3499,-1.3499,-1.3533,-1.3533,-1.3533,-1.3543,-1.3543,-1.3543,-1.3528,-1.3527,-1.3526,-1.3526,-1.3536,-1.3537,-1.3538,0,0,0,0,0,0,0,0,0,0,0,0,0,-1.3512,-1.35,-1.3533,-1.3526,-1.3526,-1.3543,-1.3543,-1.3543,-1.3528,-1.3527,-1.3526,-1.3526,-1.3536,-1.3537,-1.3538,-1.3562,0,0,-1.3542,-1.3542,0,0,0,0,0,0,0,0,-1.3511,-1.3513,-1.3527,-1.3527,-1.3526,-1.3533,-1.3535,-1.3549,-1.3528,-1.3527,-1.3526,-1.3525,-1.3536,-1.3537,-1.3541,-1.3562,-1.3562,-1.3542,-1.3543,-1.3543,-1.3543,0,0,0,0,0,0,0,-1.351,-1.3512,-1.3537,-1.3527,-1.3527,-1.3523,-1.3524,-1.3537,-1.3536,-1.3527,-1.3526,-1.3527,-1.3536,-1.354,-1.3541,-1.3563,-1.3542,-1.3543,-1.3544,-1.3544,-1.3601,-1.3602,0,0,0,0,0,0,-1.351,-1.3512,-1.3536,-1.3537,-1.3517,-1.3524,-1.3525,-1.3532,-1.3536,-1.3536,-1.3528,-1.3527,-1.3538,-1.354,-1.3541,-1.3567,-1.3543,-1.3544,-1.3545,-1.36,-1.3601,-1.3602,0,0,0,0,0,0,-1.3509,-1.3512,-1.3536,-1.3524,-1.3527,-1.3525,-1.3533,-1.3532,-1.3536,-1.3537,-1.3536,-1.3533,-1.3538,-1.354,-1.3556,-1.3567,-1.3545,-1.3546,-1.3599,-1.36,-1.3602,-1.362,0,0,0,0,0,0,-1.3508,-1.3512,-1.3522,-1.3524,-1.3527,-1.3551,-1.3534,-1.3533,-1.3538,-1.3537,-1.3541,-1.3541,-1.3537,-1.3554,-1.3557,-1.3569,-1.3547,-1.3598,-1.36,-1.3601,-1.3618,-1.3622,-1.3625,0,0,0,0,0,-1.3507,-1.3527,-1.3522,-1.3525,-1.3539,-1.3552,-1.3553,-1.3549,-1.354,-1.3548,-1.3548,-1.354,-1.3566,-1.3556,-1.3559,-1.3571,-1.3597,-1.3599,-1.3601,-1.3617,-1.3621,-1.3625,0,0,0,0,0,0,-1.3526,-1.3527,-1.3522,-1.3543,-1.3547,-1.3549,-1.356,-1.3554,-1.3561,-1.3559,-1.3553,-1.3554,-1.3572,-1.3573,-1.3562,-1.3593,-1.358,-1.3582,-1.3591,-1.3595,-1.3598,-1.3597,-1.3548,0,0,0,0,0,-1.3533,-1.3543,-1.3544,-1.3562,-1.3564,-1.3562,-1.3568,-1.3563,-1.3568,-1.357,-1.3571,-1.3575,-1.3583,-1.3589,-1.3598,-1.3619,-1.3618,-1.3628,-1.3631,-1.3634,-1.3636,-1.3645,-1.3649,-1.3608,-1.3608,-1.3608,0,0,-1.3547,-1.3548,-1.3556,-1.3566,-1.3569,-1.3579,-1.3564,-1.3576,-1.3583,-1.3571,-1.3586,-1.3587,-1.3591,-1.361,-1.3618,-1.3612,-1.3647,-1.3636,-1.3638,-1.3639,-1.3647,-1.3651,-1.3655,-1.3609,-1.3609,-1.3609,0,0,-1.3577,-1.358,-1.3595,-1.3597,-1.3601,-1.3599,-1.3603,-1.3605,-1.3605,-1.362,-1.3611,-1.3619,-1.3635,-1.3637,-1.3641,-1.367,-1.3662,-1.3673,-1.3689,-1.3698,-1.3701,-1.3704,-1.3713,-1.3716,-1.3675,-1.3675,-1.3675,0,-1.3593,-1.3609,-1.3603,-1.3615,-1.3619,-1.3608,-1.3622,-1.3625,-1.3632,-1.3635,-1.3628,-1.3646,-1.3648,-1.3666,-1.3672,-1.3676,-1.3679,-1.3672,-1.3701,-1.3704,-1.3706,-1.3714,-1.3718,-1.3676,-1.3676,-1.3676,-1.3676,0,-1.3628,-1.3638,-1.365,-1.3655,-1.3661,-1.3674,-1.367,-1.3676,-1.3671,-1.3669,-1.3684,-1.3686,-1.3693,-1.3697,-1.3693,-1.3714,-1.371,-1.3702,-1.3689,-1.3711,-1.3719,-1.3722,-1.3677,-1.3677,-1.3677,-1.3676,0,0,-1.3671,-1.3672,-1.3676,-1.3678,-1.368,-1.3688,-1.37,-1.3707,-1.3711,-1.3716,-1.3725,-1.3738,-1.373,-1.3734,-1.3729,-1.3738,-1.3758,-1.3728,-1.3728,-1.3733,-1.3779,-1.3785,-1.3788,-1.3753,-1.3754,-1.3755,-1.3779,0,-1.37,-1.372,-1.3714,-1.3735,-1.3743,-1.3732,-1.3742,-1.3745,-1.3743,-1.375,-1.3748,-1.3756,-1.3746,-1.3748,-1.3756,-1.3754,-1.3767,-1.3752,-1.3761,-1.3761,-1.3759,-1.3793,-1.3799,-1.3821,-1.3782,-1.3782,-1.3783,0,-1.3736,-1.3741,-1.3762,-1.3761,-1.3764,-1.3774,-1.3778,-1.3785,-1.3787,-1.3785,-1.3788,-1.3782,-1.3793,-1.378,-1.3794,-1.3784,-1.3787,-1.3786,-1.3787,-1.3787,-1.3773,-1.3793,-1.3829,-1.3832,-1.3788,-1.3787,-1.3787,0,-1.3764,-1.3775,-1.3788,-1.379,-1.379,-1.3797,-1.3797,-1.3798,-1.3802,-1.3806,-1.3808,-1.3814,-1.3816,-1.382,-1.3815,-1.3807,-1.3829,-1.3817,-1.3827,-1.3827,-1.3832,-1.3832,-1.3868,-1.3836,-1.3836,-1.3836,-1.3836,0,-1.3796,-1.3808,-1.38,-1.3809,-1.3822,-1.3815,-1.3828,-1.3827,-1.3828,-1.3835,-1.3826,-1.3833,-1.3826,-1.3832,-1.3829,-1.384,-1.3842,-1.384,-1.3838,-1.384,-1.384,-1.3841,-1.3839,-1.3837,-1.3837,-1.3836,-1.3836,0,-1.3829,-1.3824,-1.3837,-1.3836,-1.3835,-1.3845,-1.3843,-1.385,-1.3848,-1.3857,-1.3858,-1.3854,-1.386,-1.3856,-1.3863,-1.386,-1.3874,-1.3871,-1.3873,-1.3872,-1.3883,-1.3881,-1.392,-1.3925,-1.3891,-1.3891,-1.3891,0,-1.3849,-1.3858,-1.3857,-1.3861,-1.3861,-1.3868,-1.3871,-1.3864,-1.3868,-1.387,-1.3876,-1.3881,-1.3885,-1.3896,-1.3893,-1.3898,-1.3894,-1.3908,-1.3895,-1.3896,-1.3893,-1.3892,-1.3892,-1.391,-1.391,-1.3911,-1.3911,0,-1.3885,-1.3882,-1.3887,-1.389,-1.3894,-1.3897,-1.3899,-1.3903,-1.3895,-1.39,-1.3906,-1.3909,-1.3915,-1.392,-1.3923,-1.3923,-1.3915,-1.3915,-1.3918,-1.3919,-1.3919,-1.3918,-1.3879,-1.3914,-1.3914,-1.3914,-1.3913,-1.3913,-1.3911,-1.3918,-1.3917,-1.3923,-1.3923,-1.3925,-1.3931,-1.3928,-1.3933,-1.3937,-1.3932,-1.3939,-1.3939,-1.3943,-1.3943,-1.3948,-1.3943,-1.3947,-1.3948,-1.3948,-1.3949,-1.3919,-1.3949,-1.3949,-1.3949,-1.3949,-1.3949,0,-1.3945,-1.3944,-1.3949,-1.3951,-1.3955,-1.3947,-1.3948,-1.3952,-1.3958,-1.3959,-1.3962,-1.3968,-1.3973,-1.397,-1.3973,-1.3978,-1.3974,-1.3979,-1.3978,-1.3978,-1.3955,-1.3951,-1.3981,-1.3981,-1.3981,-1.3981,-1.3981,-1.3981,-1.3964,-1.3974,-1.397,-1.3981,-1.3979,-1.3985,-1.3987,-1.3988,-1.3988,-1.3995,-1.3998,-1.3996,-1.3994,-1.3998,-1.4001,-1.4,-1.4001,-1.4007,-1.4004,-1.3983,-1.398,-1.3977,-1.3973,-1.4007,-1.4007,-1.4027,-1.4027,-1.4027]}]]